START_TIME,STEP,MOV.,H8,t_acc.,H43,t_acc.,M25,t_acc.,H9,t_acc.
1980-11-14 06:00:18.070 ,5,0,0.,12.0,0.,12.0,0.,12.0,0.,12.0
1980-11-14 06:00:30.070 ,5,0,0.,12.0,0.,12.0,0.,12.0,0.,12.0
1980-11-14 06:00:42.070 ,6,0,0.,12.0,0.,12.0,0.,12.0,0.,12.0
1980-11-14 06:00:54.070 ,6,0,0.,12.0,0.,12.0,0.,12.0,0.,12.0
1980-11-14 06:01:06.070 ,6,0,0.,12.0,0.,12.0,0.,12.0,0.,12.0
1980-11-14 06:01:18.070 ,6,0,0.,12.0,0.,12.0,0.,12.0,0.,12.0
1980-11-14 06:01:30.070 ,7,0,0.,12.0,0.,12.0,0.,12.0,0.,12.0
1980-11-14 06:01:42.070 ,7,0,0.,12.0,0.,12.0,0.,12.0,0.,12.0
1980-11-14 06:01:54.070 ,7,0,0.,12.0,0.,12.0,0.,12.0,0.,12.0
1980-11-14 06:02:06.070 ,7,0,0.,12.0,0.,12.0,0.,12.0,0.,12.0
1980-11-14 06:02:18.070 ,7,0,0.,12.0,0.,12.0,0.,12.0,0.,12.0
1980-11-14 06:02:30.070 ,7,0,0.,12.0,0.,12.0,0.,12.0,0.,12.0
1980-11-14 06:02:42.070 ,7,0,0.,12.0,0.,12.0,0.,12.0,0.,12.0
1980-11-14 06:02:54.070 ,7,0,0.,12.0,0.,12.0,0.,12.0,0.,12.0
1980-11-14 06:03:06.070 ,6,0,0.,12.0,0.,12.0,0.,12.0,0.,12.0
1980-11-14 06:03:18.070 ,6,0,0.,12.0,0.,12.0,0.,12.0,0.,12.0
1980-11-14 06:03:30.070 ,6,0,0.,12.0,0.,12.0,0.,12.0,0.,12.0
1980-11-14 06:03:42.070 ,6,0,0.,12.0,0.,12.0,0.,12.0,0.,12.0
1980-11-14 06:03:54.070 ,5,0,0.,12.0,0.,12.0,0.,12.0,0.,12.0
1980-11-14 06:04:06.070 ,5,0,0.,12.0,0.,12.0,0.,12.0,0.,12.0
1980-11-14 06:04:18.070 ,5,0,0.,12.0,0.,12.0,0.,12.0,0.,12.0
1980-11-14 06:04:30.070 ,5,0,0.,12.0,0.,12.0,0.,12.0,0.,12.0
1980-11-14 06:04:42.070 ,4,0,0.,12.0,0.,12.0,0.,12.0,0.,12.0
1980-11-14 06:04:54.070 ,4,0,0.,12.0,0.,12.0,0.,12.0,0.,12.0
1980-11-14 06:05:06.070 ,4,0,0.,12.0,0.,12.0,0.,12.0,0.,12.0
1980-11-14 06:05:18.070 ,4,0,0.,12.0,0.,12.0,0.,12.0,0.,12.0
1980-11-14 06:05:30.070 ,3,0,0.,12.0,0.,12.0,0.,12.0,0.,12.0
1980-11-14 06:05:42.070 ,3,0,0.,12.0,0.,12.0,0.,12.0,0.,12.0
1980-11-14 06:05:54.070 ,3,0,0.,12.0,0.,12.0,0.,12.0,0.,12.0
1980-11-14 06:06:06.070 ,3,0,0.,12.0,0.,12.0,0.,12.0,0.,12.0
1980-11-14 06:06:18.070 ,2,0,0.,12.0,0.,12.0,0.,12.0,0.,12.0
1980-11-14 06:06:30.070 ,2,0,0.,12.0,0.,12.0,0.,12.0,0.,12.0
1980-11-14 06:06:42.070 ,2,0,0.,12.0,0.,12.0,0.,12.0,0.,12.0
1980-11-14 06:06:54.070 ,2,0,0.,12.0,0.,12.0,0.,12.0,0.,12.0
1980-11-14 06:07:06.070 ,1,0,0.,12.0,0.,12.0,0.,12.0,0.,12.0
1980-11-14 06:07:18.070 ,1,0,0.,12.0,0.,12.0,0.,12.0,0.,12.0
1980-11-14 06:07:30.070 ,1,0,0.,12.0,0.,12.0,0.,12.0,0.,12.0
1980-11-14 06:07:42.070 ,1,0,0.,12.0,0.,12.0,0.,12.0,0.,12.0
1980-11-14 06:07:54.070 ,0,0,0.,12.0,0.,12.0,0.,12.0,0.,12.0
1980-11-14 06:08:06.070 ,0,0,0.,12.0,0.,12.0,0.,12.0,0.,12.0
1980-11-14 06:08:18.070 ,0,0,0.,12.0,0.,12.0,0.,12.0,0.,12.0
1980-11-14 06:08:30.070 ,0,0,0.,12.0,0.,12.0,0.,12.0,0.,12.0
1980-11-14 06:08:42.070 ,0,0,0.,12.0,0.,12.0,0.,12.0,0.,12.0
1980-11-14 06:08:54.070 ,0,0,0.,12.0,0.,12.0,0.,12.0,0.,12.0
1980-11-14 06:09:06.070 ,0,0,0.,12.0,0.,12.0,0.,12.0,0.,12.0
1980-11-14 06:09:18.070 ,0,0,0.,12.0,0.,12.0,0.,12.0,0.,12.0
1980-11-14 06:09:30.070 ,1,0,0.,12.0,0.,12.0,0.,12.0,0.,12.0
1980-11-14 06:09:42.070 ,1,0,0.,12.0,0.,12.0,0.,12.0,0.,12.0
1980-11-14 06:09:54.070 ,1,0,0.,12.0,0.,12.0,0.,12.0,0.,12.0
1980-11-14 06:10:06.070 ,1,0,0.,12.0,0.,12.0,0.,12.0,0.,12.0
1980-11-14 06:10:18.070 ,2,0,0.,12.0,0.,12.0,0.,12.0,0.,12.0
1980-11-14 06:10:30.070 ,2,0,0.,12.0,0.,12.0,0.,12.0,0.,12.0
1980-11-14 06:10:42.070 ,2,0,0.,12.0,0.,12.0,0.,12.0,0.,12.0
1980-11-14 06:10:54.070 ,2,0,0.,12.0,0.,12.0,0.,12.0,0.,12.0
1980-11-14 06:11:06.070 ,3,0,0.,12.0,0.,12.0,0.,12.0,0.,12.0
1980-11-14 06:11:18.070 ,3,0,0.,12.0,0.,12.0,0.,12.0,0.,12.0
1980-11-14 06:11:30.070 ,3,0,0.,12.0,0.,12.0,0.,12.0,0.,12.0
1980-11-14 06:11:42.070 ,3,0,0.,12.0,0.,12.0,0.,12.0,0.,12.0
1980-11-14 06:11:54.070 ,4,0,0.,12.0,0.,12.0,0.,12.0,0.,12.0
1980-11-14 06:12:06.070 ,4,0,0.,12.0,0.,12.0,0.,12.0,0.,12.0
1980-11-14 06:12:18.070 ,4,0,0.,12.0,0.,12.0,0.,12.0,0.,12.0
1980-11-14 06:12:30.070 ,4,0,0.,12.0,0.,12.0,0.,12.0,0.,12.0
1980-11-14 06:12:42.070 ,5,0,0.,12.0,0.,12.0,0.,12.0,0.,12.0
1980-11-14 06:12:54.070 ,5,0,0.,12.0,0.,12.0,0.,12.0,0.,12.0
1980-11-14 06:13:06.070 ,5,0,0.,12.0,0.,12.0,0.,12.0,0.,12.0
1980-11-14 06:13:18.070 ,5,0,0.,12.0,0.,12.0,0.,12.0,0.,12.0
1980-11-14 06:13:30.070 ,6,0,0.,12.0,0.,12.0,0.,12.0,0.,12.0
1980-11-14 06:13:42.070 ,6,0,0.,12.0,0.,12.0,0.,12.0,0.,12.0
1980-11-14 06:13:54.070 ,6,0,0.,12.0,0.,12.0,0.,12.0,0.,12.0
1980-11-14 06:14:06.070 ,6,0,0.,12.0,0.,12.0,0.,12.0,0.,12.0
1980-11-14 06:14:18.070 ,7,0,0.,12.0,0.,12.0,0.,12.0,0.,12.0
1980-11-14 06:14:30.070 ,7,0,0.,12.0,0.,12.0,0.,12.0,0.,12.0
1980-11-14 06:14:42.070 ,7,0,0.,12.0,0.,12.0,0.,12.0,0.,12.0
1980-11-14 06:14:54.070 ,7,0,0.,12.0,0.,12.0,0.,12.0,0.,12.0
1980-11-14 06:15:06.070 ,7,0,0.,12.0,0.,12.0,0.,12.0,0.,12.0
1980-11-14 06:15:18.070 ,7,0,0.,12.0,0.,12.0,0.,12.0,0.,12.0
1980-11-14 06:15:30.070 ,7,0,0.,12.0,0.,12.0,0.,12.0,0.,12.0
1980-11-14 06:15:42.070 ,7,0,0.,12.0,0.,12.0,0.,12.0,0.,12.0
1980-11-14 06:15:54.070 ,6,0,0.,12.0,0.,12.0,0.,12.0,0.,12.0
1980-11-14 06:16:06.070 ,6,0,0.,12.0,0.,12.0,0.,12.0,0.,12.0
1980-11-14 06:16:18.070 ,6,0,0.,12.0,0.,12.0,0.,12.0,0.,12.0
1980-11-14 06:16:30.070 ,6,0,0.,12.0,0.,12.0,0.,12.0,0.,12.0
1980-11-14 06:16:42.070 ,5,0,0.,12.0,0.,12.0,0.,12.0,0.,12.0
1980-11-14 06:16:54.070 ,5,0,0.,12.0,0.,12.0,0.,12.0,0.,12.0
1980-11-14 06:17:06.070 ,5,0,0.,12.0,0.,12.0,0.,12.0,0.,12.0
1980-11-14 06:17:18.070 ,5,0,0.,12.0,0.,12.0,0.,12.0,0.,12.0
1980-11-14 06:17:30.070 ,4,0,0.,12.0,0.,12.0,0.,12.0,0.,12.0
1980-11-14 06:17:42.070 ,4,0,0.,12.0,0.,12.0,0.,12.0,0.,12.0
1980-11-14 06:17:54.070 ,4,0,0.,12.0,0.,12.0,0.,12.0,0.,12.0
1980-11-14 06:18:06.070 ,4,0,0.,12.0,0.,12.0,0.,12.0,0.,12.0
1980-11-14 06:18:18.070 ,3,0,0.,12.0,0.,12.0,0.,12.0,0.,12.0
1980-11-14 06:18:30.070 ,3,0,0.,12.0,0.,12.0,0.,12.0,0.,12.0
1980-11-14 06:18:42.070 ,3,0,0.,12.0,0.,12.0,0.,12.0,0.,12.0
1980-11-14 06:18:54.070 ,3,0,0.,12.0,0.,12.0,0.,12.0,0.,12.0
1980-11-14 06:19:06.070 ,2,0,0.,12.0,0.,12.0,0.,12.0,0.,12.0
1980-11-14 06:19:18.070 ,2,0,0.,12.0,0.,12.0,0.,12.0,0.,12.0
1980-11-14 06:19:30.070 ,2,0,0.,12.0,0.,12.0,0.,12.0,0.,12.0
1980-11-14 06:19:42.070 ,2,0,0.,12.0,0.,12.0,0.,12.0,0.,12.0
1980-11-14 06:19:54.070 ,1,0,0.,12.0,0.,12.0,0.,12.0,0.,12.0
1980-11-14 06:20:06.070 ,1,0,0.,12.0,0.,12.0,0.,12.0,0.,12.0
1980-11-14 06:20:18.070 ,1,0,0.,12.0,0.,12.0,0.,12.0,0.,12.0
1980-11-14 06:20:30.070 ,1,0,0.,12.0,0.,12.0,0.,12.0,0.,12.0
1980-11-14 06:20:42.070 ,0,0,0.,12.0,0.,12.0,0.,12.0,0.,12.0
1980-11-14 06:20:54.070 ,0,0,0.,12.0,0.,12.0,0.,12.0,0.,12.0
1980-11-14 06:21:06.070 ,0,0,0.,12.0,0.,12.0,0.,12.0,0.,12.0
1980-11-14 06:21:18.070 ,0,0,0.,12.0,0.,12.0,0.,12.0,0.,12.0
1980-11-14 06:21:30.070 ,0,0,0.,12.0,0.,12.0,0.,12.0,0.,12.0
1980-11-14 06:21:42.070 ,0,0,0.,12.0,0.,12.0,0.,12.0,0.,12.0
1980-11-14 06:21:54.070 ,0,0,0.,12.0,0.,12.0,0.,12.0,0.,12.0
1980-11-14 06:22:06.070 ,0,0,0.,12.0,0.,12.0,0.,12.0,0.,12.0
1980-11-14 06:22:18.070 ,1,0,0.,12.0,0.,12.0,0.,12.0,0.,12.0
1980-11-14 06:22:30.070 ,1,0,0.,12.0,0.,12.0,0.,12.0,0.,12.0
1980-11-14 06:22:42.070 ,1,0,0.,12.0,0.,12.0,0.,12.0,0.,12.0
1980-11-14 06:22:54.070 ,1,0,0.,12.0,0.,12.0,0.,12.0,0.,12.0
1980-11-14 06:23:06.070 ,2,0,0.,12.0,0.,12.0,0.,12.0,0.,12.0
1980-11-14 06:23:18.070 ,2,0,0.,12.0,0.,12.0,0.,12.0,0.,12.0
1980-11-14 06:23:30.070 ,2,0,0.,12.0,0.,12.0,0.,12.0,0.,12.0
1980-11-14 06:23:42.070 ,2,0,0.,12.0,0.,12.0,0.,12.0,0.,12.0
1980-11-14 06:23:54.070 ,3,0,0.,12.0,0.,12.0,0.,12.0,0.,12.0
1980-11-14 06:24:06.070 ,3,0,0.,12.0,0.,12.0,0.,12.0,0.,12.0
1980-11-14 06:24:18.070 ,3,0,0.,12.0,0.,12.0,0.,12.0,0.,12.0
1980-11-14 06:24:30.070 ,3,0,0.,12.0,0.,12.0,0.,12.0,0.,12.0
1980-11-14 06:24:42.070 ,4,0,0.,12.0,0.,12.0,0.,12.0,0.,12.0
1980-11-14 06:24:54.070 ,4,0,0.,12.0,0.,12.0,0.,12.0,0.,12.0
1980-11-14 06:25:06.070 ,4,0,0.,12.0,0.,12.0,0.,12.0,0.,12.0
1980-11-14 06:25:18.070 ,4,0,0.,12.0,0.,12.0,0.,12.0,0.,12.0
1980-11-14 06:25:30.070 ,5,0,0.,12.0,0.,12.0,0.,12.0,0.,12.0
1980-11-14 06:25:42.070 ,5,0,0.,12.0,0.,12.0,0.,12.0,0.,12.0
1980-11-14 06:25:54.070 ,5,0,0.,12.0,0.,12.0,0.,12.0,0.,12.0
1980-11-14 06:26:06.070 ,5,0,0.,12.0,0.,12.0,0.,12.0,0.,12.0
1980-11-14 06:26:18.070 ,6,0,0.,12.0,0.,12.0,0.,12.0,0.,12.0
1980-11-14 06:26:30.070 ,6,0,0.,12.0,0.,12.0,0.,12.0,0.,12.0
1980-11-14 06:26:42.070 ,6,0,0.,12.0,0.,12.0,0.,12.0,0.,12.0
1980-11-14 06:26:54.070 ,6,0,0.,12.0,0.,12.0,0.,12.0,0.,12.0
1980-11-14 06:27:06.070 ,7,0,0.,12.0,0.,12.0,0.,12.0,0.,12.0
1980-11-14 06:27:18.070 ,7,0,0.,12.0,0.,12.0,0.,12.0,0.,12.0
1980-11-14 06:27:30.070 ,7,0,0.,12.0,0.,12.0,0.,12.0,0.,12.0
1980-11-14 06:27:42.070 ,7,0,0.,12.0,0.,12.0,0.,12.0,0.,12.0
1980-11-14 06:27:54.070 ,7,0,0.,12.0,0.,12.0,0.,12.0,0.,12.0
1980-11-14 06:28:06.070 ,7,0,0.,12.0,0.,12.0,0.,12.0,0.,12.0
1980-11-14 06:28:18.070 ,7,0,0.,12.0,0.,12.0,0.,12.0,0.,12.0
1980-11-14 06:28:30.070 ,7,0,0.,12.0,0.,12.0,0.,12.0,0.,12.0
1980-11-14 06:28:42.070 ,6,0,0.,12.0,0.,12.0,0.,12.0,0.,12.0
1980-11-14 06:28:54.070 ,6,0,0.,12.0,0.,12.0,0.,12.0,0.,12.0
1980-11-14 06:29:06.070 ,0,0,0.,12.0,0.,12.0,0.,12.0,0.,12.0
1980-11-14 06:29:18.070 ,0,0,0.,12.0,0.,12.0,0.,12.0,0.,12.0
1980-11-14 07:28:54.670 ,0,0,,0,,0,,0,,0
1980-11-14 07:29:06.670 ,0,0,0.,12.0,0.,12.0,0.,12.0,0.,12.0
1980-11-14 07:29:06.070 ,0,0,0.,12.0,0.,12.0,0.,12.0,0.,12.0
1980-11-14 07:29:18.070 ,0,0,0.,12.0,0.,12.0,0.,12.0,0.,12.0
1980-11-14 07:29:30.070 ,5,0,0.,12.0,0.,12.0,0.,12.0,0.,12.0
1980-11-14 07:29:42.070 ,5,0,0.,12.0,0.,12.0,0.,12.0,0.,12.0
1980-11-14 07:29:54.070 ,5,0,0.,12.0,0.,12.0,0.,12.0,0.,12.0
1980-11-14 07:30:06.070 ,5,0,0.,12.0,0.,12.0,0.,12.0,0.,12.0
1980-11-14 07:30:18.070 ,6,0,0.,12.0,0.,12.0,0.,12.0,0.,12.0
1980-11-14 07:30:30.070 ,6,0,0.,12.0,0.,12.0,0.,12.0,0.,12.0
1980-11-14 07:30:42.070 ,6,0,0.,12.0,0.,12.0,0.,12.0,0.,12.0
1980-11-14 07:30:54.070 ,6,0,0.,12.0,0.,12.0,0.,12.0,0.,12.0
1980-11-14 07:31:06.070 ,7,0,0.,12.0,0.,12.0,0.,12.0,0.,12.0
1980-11-14 07:31:18.070 ,7,0,0.,12.0,0.,12.0,0.,12.0,0.,12.0
1980-11-14 07:31:30.070 ,7,0,0.,12.0,0.,12.0,0.,12.0,0.,12.0
1980-11-14 07:31:42.070 ,7,0,0.,12.0,0.,12.0,0.,12.0,0.,12.0
1980-11-14 07:31:54.070 ,7,0,0.,12.0,0.,12.0,0.,12.0,0.,12.0
1980-11-14 07:32:06.070 ,7,0,0.,12.0,0.,12.0,0.,12.0,0.,12.0
1980-11-14 07:32:18.070 ,7,0,0.,12.0,0.,12.0,0.,12.0,0.,12.0
1980-11-14 07:32:30.070 ,7,0,0.,12.0,0.,12.0,0.,12.0,0.,12.0
1980-11-14 07:32:42.070 ,6,0,0.,12.0,0.,12.0,0.,12.0,0.,12.0
1980-11-14 07:32:54.070 ,6,0,0.,12.0,0.,12.0,0.,12.0,0.,12.0
1980-11-14 07:33:06.070 ,6,0,0.,12.0,0.,12.0,0.,12.0,0.,12.0
1980-11-14 07:33:18.070 ,6,0,0.,12.0,0.,12.0,0.,12.0,0.,12.0
1980-11-14 07:33:30.070 ,5,0,0.,12.0,0.,12.0,0.,12.0,0.,12.0
1980-11-14 07:33:42.070 ,5,0,0.,12.0,0.,12.0,0.,12.0,0.,12.0
1980-11-14 07:33:54.070 ,5,0,0.,12.0,0.,12.0,0.,12.0,0.,12.0
1980-11-14 07:34:06.070 ,5,0,0.,12.0,0.,12.0,0.,12.0,0.,12.0
1980-11-14 07:34:18.070 ,4,0,0.,12.0,0.,12.0,0.,12.0,0.,12.0
1980-11-14 07:34:30.070 ,4,0,0.,12.0,0.,12.0,0.,12.0,0.,12.0
1980-11-14 07:34:42.070 ,4,0,0.,12.0,0.,12.0,0.,12.0,0.,12.0
1980-11-14 07:34:54.070 ,4,0,0.,12.0,0.,12.0,0.,12.0,0.,12.0
1980-11-14 07:35:06.070 ,3,0,0.,12.0,0.,12.0,0.,12.0,0.,12.0
1980-11-14 07:35:18.070 ,3,0,0.,12.0,0.,12.0,0.,12.0,0.,12.0
1980-11-14 07:35:30.070 ,3,0,0.,12.0,0.,12.0,0.,12.0,0.,12.0
1980-11-14 07:35:42.070 ,3,0,0.,12.0,0.,12.0,0.,12.0,0.,12.0
1980-11-14 07:35:54.070 ,2,0,0.,12.0,0.,12.0,0.,12.0,0.,12.0
1980-11-14 07:36:06.070 ,2,0,0.,12.0,0.,12.0,0.,12.0,0.,12.0
1980-11-14 07:36:18.070 ,2,0,0.,12.0,0.,12.0,0.,12.0,0.,12.0
1980-11-14 07:36:30.070 ,2,0,0.,12.0,0.,12.0,0.,12.0,0.,12.0
1980-11-14 07:36:42.070 ,1,0,0.,12.0,0.,12.0,0.,12.0,0.,12.0
1980-11-14 07:36:54.070 ,1,0,0.,12.0,0.,12.0,0.,12.0,0.,12.0
1980-11-14 07:37:06.070 ,1,0,0.,12.0,0.,12.0,0.,12.0,0.,12.0
1980-11-14 07:37:18.070 ,1,0,0.,12.0,0.,12.0,0.,12.0,0.,12.0
1980-11-14 07:37:30.070 ,0,0,0.,12.0,0.,12.0,0.,12.0,0.,12.0
1980-11-14 07:37:42.070 ,0,0,0.,12.0,0.,12.0,0.,12.0,0.,12.0
1980-11-14 07:37:54.070 ,0,0,0.,12.0,0.,12.0,0.,12.0,0.,12.0
1980-11-14 07:38:06.070 ,0,0,0.,12.0,0.,12.0,0.,12.0,0.,12.0
1980-11-14 07:38:18.070 ,0,0,0.,12.0,0.,12.0,0.,12.0,0.,12.0
1980-11-14 07:38:30.070 ,0,0,0.,12.0,0.,12.0,0.,12.0,0.,12.0
1980-11-14 07:38:42.070 ,0,0,0.,12.0,0.,12.0,0.,12.0,0.,12.0
1980-11-14 07:38:54.070 ,0,0,0.,12.0,0.,12.0,0.,12.0,0.,12.0
1980-11-14 07:39:06.070 ,1,0,0.,12.0,0.,12.0,0.,12.0,0.,12.0
1980-11-14 07:39:18.070 ,1,0,0.,12.0,0.,12.0,0.,12.0,0.,12.0
1980-11-14 07:39:30.070 ,1,0,0.,12.0,0.,12.0,0.,12.0,0.,12.0
1980-11-14 07:39:42.070 ,1,0,0.,12.0,0.,12.0,0.,12.0,0.,12.0
1980-11-14 07:39:54.070 ,2,0,0.,12.0,0.,12.0,0.,12.0,0.,12.0
1980-11-14 07:40:06.070 ,2,0,0.,12.0,0.,12.0,0.,12.0,0.,12.0
1980-11-14 07:40:18.070 ,2,0,0.,12.0,0.,12.0,0.,12.0,0.,12.0
1980-11-14 07:40:30.070 ,2,0,0.,12.0,0.,12.0,0.,12.0,0.,12.0
1980-11-14 07:40:42.070 ,3,0,0.,12.0,0.,12.0,0.,12.0,0.,12.0
1980-11-14 07:40:54.070 ,3,0,0.,12.0,0.,12.0,0.,12.0,0.,12.0
1980-11-14 07:41:06.070 ,3,0,0.,12.0,0.,12.0,0.,12.0,0.,12.0
1980-11-14 07:41:18.070 ,3,0,0.,12.0,0.,12.0,0.,12.0,0.,12.0
1980-11-14 07:41:30.070 ,4,0,0.,12.0,0.,12.0,0.,12.0,0.,12.0
1980-11-14 07:41:42.070 ,4,0,0.,12.0,0.,12.0,0.,12.0,0.,12.0
1980-11-14 07:41:54.070 ,4,0,0.,12.0,0.,12.0,0.,12.0,0.,12.0
1980-11-14 07:42:06.070 ,4,0,0.,12.0,0.,12.0,0.,12.0,0.,12.0
1980-11-14 07:42:18.070 ,5,0,0.,12.0,0.,12.0,0.,12.0,0.,12.0
1980-11-14 07:42:30.070 ,5,0,0.,12.0,0.,12.0,0.,12.0,0.,12.0
1980-11-14 07:42:42.070 ,5,0,0.,12.0,0.,12.0,0.,12.0,0.,12.0
1980-11-14 07:42:54.070 ,5,0,0.,12.0,0.,12.0,0.,12.0,0.,12.0
1980-11-14 07:43:06.070 ,6,0,0.,12.0,0.,12.0,0.,12.0,0.,12.0
1980-11-14 07:43:18.070 ,6,0,0.,12.0,0.,12.0,0.,12.0,0.,12.0
1980-11-14 07:43:30.070 ,6,0,0.,12.0,0.,12.0,0.,12.0,0.,12.0
1980-11-14 07:43:42.070 ,6,0,0.,12.0,0.,12.0,0.,12.0,0.,12.0
1980-11-14 07:43:54.070 ,7,0,0.,12.0,0.,12.0,0.,12.0,0.,12.0
1980-11-14 07:44:06.070 ,7,0,0.,12.0,0.,12.0,0.,12.0,0.,12.0
1980-11-14 07:44:18.070 ,7,0,0.,12.0,0.,12.0,0.,12.0,0.,12.0
1980-11-14 07:44:30.070 ,7,0,0.,12.0,0.,12.0,0.,12.0,0.,12.0
1980-11-14 07:44:42.070 ,7,0,0.,12.0,0.,12.0,0.,12.0,0.,12.0
1980-11-14 07:44:54.070 ,7,0,0.,12.0,0.,12.0,0.,12.0,0.,12.0
1980-11-14 07:45:06.070 ,7,0,0.,12.0,0.,12.0,0.,12.0,0.,12.0
1980-11-14 07:45:18.070 ,7,0,0.,12.0,0.,12.0,0.,12.0,0.,12.0
1980-11-14 07:45:30.070 ,6,0,0.,12.0,0.,12.0,0.,12.0,0.,12.0
1980-11-14 07:45:42.070 ,6,0,0.,12.0,0.,12.0,0.,12.0,0.,12.0
1980-11-14 07:45:54.070 ,6,0,0.,12.0,0.,12.0,0.,12.0,0.,12.0
1980-11-14 07:46:06.070 ,6,0,0.,12.0,0.,12.0,0.,12.0,0.,12.0
1980-11-14 07:46:18.070 ,5,0,0.,12.0,0.,12.0,0.,12.0,0.,12.0
1980-11-14 07:46:30.070 ,5,0,0.,12.0,0.,12.0,0.,12.0,0.,12.0
1980-11-14 07:46:42.070 ,5,0,0.,12.0,0.,12.0,0.,12.0,0.,12.0
1980-11-14 07:46:54.070 ,5,0,0.,12.0,0.,12.0,0.,12.0,0.,12.0
1980-11-14 07:47:06.070 ,4,0,0.,12.0,0.,12.0,0.,12.0,0.,12.0
1980-11-14 07:47:18.070 ,4,0,0.,12.0,0.,12.0,0.,12.0,0.,12.0
1980-11-14 07:47:30.070 ,4,0,0.,12.0,0.,12.0,0.,12.0,0.,12.0
1980-11-14 07:47:42.070 ,4,0,0.,12.0,0.,12.0,0.,12.0,0.,12.0
1980-11-14 07:47:54.070 ,3,0,0.,12.0,0.,12.0,0.,12.0,0.,12.0
1980-11-14 07:48:06.070 ,3,0,0.,12.0,0.,12.0,0.,12.0,0.,12.0
1980-11-14 07:48:18.070 ,3,0,0.,12.0,0.,12.0,0.,12.0,0.,12.0
1980-11-14 07:48:30.070 ,3,0,0.,12.0,0.,12.0,0.,12.0,0.,12.0
1980-11-14 07:48:42.070 ,2,0,0.,12.0,0.,12.0,0.,12.0,0.,12.0
1980-11-14 07:48:54.070 ,2,0,0.,12.0,0.,12.0,0.,12.0,0.,12.0
1980-11-14 07:49:06.070 ,2,0,0.,12.0,0.,12.0,0.,12.0,0.,12.0
1980-11-14 07:49:18.070 ,2,0,0.,12.0,0.,12.0,0.,12.0,0.,12.0
1980-11-14 07:49:30.070 ,1,0,0.,12.0,0.,12.0,0.,12.0,0.,12.0
1980-11-14 07:49:42.070 ,1,0,0.,12.0,0.,12.0,0.,12.0,0.,12.0
1980-11-14 07:49:54.070 ,1,0,0.,12.0,0.,12.0,0.,12.0,0.,12.0
1980-11-14 07:50:06.070 ,1,0,0.,12.0,0.,12.0,0.,12.0,0.,12.0
1980-11-14 07:50:18.070 ,0,0,0.,12.0,0.,12.0,0.,12.0,0.,12.0
1980-11-14 07:50:30.070 ,0,0,0.,12.0,0.,12.0,0.,12.0,0.,12.0
1980-11-14 07:50:42.070 ,0,0,0.,12.0,0.,12.0,0.,12.0,0.,12.0
1980-11-14 07:50:54.070 ,0,0,0.,12.0,0.,12.0,0.,12.0,0.,12.0
1980-11-14 07:51:06.070 ,0,0,0.,12.0,0.,12.0,0.,12.0,0.,12.0
1980-11-14 07:51:18.070 ,0,0,0.,12.0,0.,12.0,0.,12.0,0.,12.0
1980-11-14 07:51:30.070 ,0,0,0.,12.0,0.,12.0,0.,12.0,0.,12.0
1980-11-14 07:51:42.070 ,0,0,0.,12.0,0.,12.0,0.,12.0,0.,12.0
1980-11-14 07:51:54.070 ,1,0,0.,12.0,0.,12.0,0.,12.0,0.,12.0
1980-11-14 07:52:06.070 ,1,0,0.,12.0,0.,12.0,0.,12.0,0.,12.0
1980-11-14 07:52:18.070 ,1,0,0.,12.0,0.,12.0,0.,12.0,0.,12.0
1980-11-14 07:52:30.070 ,1,0,0.,12.0,0.,12.0,0.,12.0,0.,12.0
1980-11-14 07:52:42.070 ,2,0,0.,12.0,0.,12.0,0.,12.0,0.,12.0
1980-11-14 07:52:54.070 ,2,0,0.,12.0,0.,12.0,0.,12.0,0.,12.0
1980-11-14 07:53:06.070 ,2,0,0.,12.0,0.,12.0,0.,12.0,0.,12.0
1980-11-14 07:53:18.070 ,2,0,0.,12.0,0.,12.0,0.,12.0,0.,12.0
1980-11-14 07:53:30.070 ,3,0,0.,12.0,0.,12.0,0.,12.0,0.,12.0
1980-11-14 07:53:42.070 ,3,0,0.,12.0,0.,12.0,0.,12.0,0.,12.0
1980-11-14 07:53:54.070 ,3,0,0.,12.0,0.,12.0,0.,12.0,0.,12.0
1980-11-14 07:54:06.070 ,3,0,0.,12.0,0.,12.0,0.,12.0,0.,12.0
1980-11-14 07:54:18.070 ,4,0,0.,12.0,0.,12.0,0.,12.0,0.,12.0
1980-11-14 07:54:30.070 ,4,0,0.,12.0,0.,12.0,0.,12.0,0.,12.0
1980-11-14 07:54:42.070 ,4,0,0.,12.0,0.,12.0,0.,12.0,0.,12.0
1980-11-14 07:54:54.070 ,4,0,0.,12.0,0.,12.0,0.,12.0,0.,12.0
1980-11-14 07:55:06.070 ,5,0,0.,12.0,0.,12.0,0.,12.0,0.,12.0
1980-11-14 07:55:18.070 ,5,0,0.,12.0,0.,12.0,0.,12.0,0.,12.0
1980-11-14 07:55:30.070 ,5,0,0.,12.0,0.,12.0,0.,12.0,0.,12.0
1980-11-14 07:55:42.070 ,5,0,0.,12.0,0.,12.0,0.,12.0,0.,12.0
1980-11-14 07:55:54.070 ,6,0,0.,12.0,0.,12.0,0.,12.0,0.,12.0
1980-11-14 07:56:06.070 ,6,0,0.,12.0,0.,12.0,0.,12.0,0.,12.0
1980-11-14 07:56:18.070 ,6,0,0.,12.0,0.,12.0,0.,12.0,0.,12.0
1980-11-14 07:56:30.070 ,6,0,0.,12.0,0.,12.0,0.,12.0,0.,12.0
1980-11-14 07:56:42.070 ,7,0,0.,12.0,0.,12.0,0.,12.0,0.,12.0
1980-11-14 07:56:54.070 ,7,0,0.,12.0,0.,12.0,0.,12.0,0.,12.0
1980-11-14 07:57:06.070 ,7,0,0.,12.0,0.,12.0,0.,12.0,0.,12.0
1980-11-14 07:57:18.070 ,7,0,0.,12.0,0.,12.0,0.,12.0,0.,12.0
1980-11-14 07:57:30.070 ,7,0,0.,12.0,0.,12.0,0.,12.0,0.,12.0
1980-11-14 07:57:42.070 ,7,0,0.,12.0,0.,12.0,0.,12.0,0.,12.0
1980-11-14 07:57:54.070 ,7,0,0.,12.0,0.,12.0,0.,12.0,0.,12.0
1980-11-14 07:58:06.070 ,7,0,0.,12.0,0.,12.0,0.,12.0,0.,12.0
1980-11-14 07:58:18.070 ,6,0,0.,12.0,0.,12.0,0.,12.0,0.,12.0
1980-11-14 07:58:30.070 ,6,0,0.,12.0,0.,12.0,0.,12.0,0.,12.0
1980-11-14 07:58:42.070 ,6,0,0.,12.0,0.,12.0,0.,12.0,0.,12.0
1980-11-14 07:58:54.070 ,6,0,0.,12.0,0.,12.0,0.,12.0,0.,12.0
1980-11-14 07:59:06.070 ,5,0,0.,12.0,0.,12.0,0.,12.0,0.,12.0
1980-11-14 07:59:18.070 ,5,0,0.,12.0,0.,12.0,0.,12.0,0.,12.0
1980-11-14 07:59:30.070 ,5,0,0.,12.0,0.,12.0,0.,12.0,0.,12.0
1980-11-14 07:59:42.070 ,5,0,0.,12.0,0.,12.0,0.,12.0,0.,12.0
1980-11-14 07:59:54.070 ,4,0,0.,12.0,0.,12.0,0.,12.0,0.,12.0
1980-11-14 08:00:06.070 ,4,0,0.,12.0,0.,12.0,0.,12.0,0.,12.0
1980-11-14 08:00:18.070 ,4,0,0.,12.0,0.,12.0,0.,12.0,0.,12.0
1980-11-14 08:00:30.070 ,4,0,0.,12.0,0.,12.0,0.,12.0,0.,12.0
1980-11-14 08:00:42.070 ,3,0,0.,12.0,0.,12.0,0.,12.0,0.,12.0
1980-11-14 08:00:54.070 ,3,0,0.,12.0,0.,12.0,0.,12.0,0.,12.0
1980-11-14 08:01:06.070 ,3,0,0.,12.0,0.,12.0,0.,12.0,0.,12.0
1980-11-14 08:01:18.070 ,3,0,0.,12.0,0.,12.0,0.,12.0,0.,12.0
1980-11-14 08:01:30.070 ,2,0,0.,12.0,0.,12.0,0.,12.0,0.,12.0
1980-11-14 08:01:42.070 ,2,0,0.,12.0,0.,12.0,0.,12.0,0.,12.0
1980-11-14 08:01:54.070 ,2,0,0.,12.0,0.,12.0,0.,12.0,0.,12.0
1980-11-14 08:02:06.070 ,2,0,0.,12.0,0.,12.0,0.,12.0,0.,12.0
1980-11-14 08:02:18.070 ,1,0,0.,12.0,0.,12.0,0.,12.0,0.,12.0
1980-11-14 08:02:30.070 ,1,0,0.,12.0,0.,12.0,0.,12.0,0.,12.0
1980-11-14 08:02:42.070 ,1,0,0.,12.0,0.,12.0,0.,12.0,0.,12.0
1980-11-14 08:02:54.070 ,1,0,0.,12.0,0.,12.0,0.,12.0,0.,12.0
1980-11-14 08:03:06.070 ,0,0,0.,12.0,0.,12.0,0.,12.0,0.,12.0
1980-11-14 08:03:18.070 ,0,0,0.,12.0,0.,12.0,0.,12.0,0.,12.0
1980-11-14 08:03:30.070 ,0,0,0.,12.0,0.,12.0,0.,12.0,0.,12.0
1980-11-14 08:03:42.070 ,0,0,0.,12.0,0.,12.0,0.,12.0,0.,12.0
1980-11-14 08:03:54.070 ,0,0,0.,12.0,0.,12.0,0.,12.0,0.,12.0
1980-11-14 08:04:06.070 ,0,0,0.,12.0,0.,12.0,0.,12.0,0.,12.0
1980-11-14 08:04:18.070 ,0,0,0.,12.0,0.,12.0,0.,12.0,0.,12.0
1980-11-14 08:04:30.070 ,0,0,0.,12.0,0.,12.0,0.,12.0,0.,12.0
1980-11-14 08:04:42.070 ,1,0,0.,12.0,0.,12.0,0.,12.0,0.,12.0
1980-11-14 08:04:54.070 ,1,0,0.,12.0,0.,12.0,0.,12.0,0.,12.0
1980-11-14 08:05:06.070 ,1,0,0.,12.0,0.,12.0,0.,12.0,0.,12.0
1980-11-14 08:05:18.070 ,1,0,0.,12.0,0.,12.0,0.,12.0,0.,12.0
1980-11-14 08:05:30.070 ,2,0,0.,12.0,0.,12.0,0.,12.0,0.,12.0
1980-11-14 08:05:42.070 ,2,0,0.,12.0,0.,12.0,0.,12.0,0.,12.0
1980-11-14 08:05:54.070 ,2,0,0.,12.0,0.,12.0,0.,12.0,0.,12.0
1980-11-14 08:06:06.070 ,2,0,0.,12.0,0.,12.0,0.,12.0,0.,12.0
1980-11-14 08:06:18.070 ,3,0,0.,12.0,0.,12.0,0.,12.0,0.,12.0
1980-11-14 08:06:30.070 ,3,0,0.,12.0,0.,12.0,0.,12.0,0.,12.0
1980-11-14 08:06:42.070 ,3,0,0.,12.0,0.,12.0,0.,12.0,0.,12.0
1980-11-14 08:06:54.070 ,3,0,0.,12.0,0.,12.0,0.,12.0,0.,12.0
1980-11-14 08:07:06.070 ,4,0,0.,12.0,0.,12.0,0.,12.0,0.,12.0
1980-11-14 08:07:18.070 ,4,0,0.,12.0,0.,12.0,0.,12.0,0.,12.0
1980-11-14 08:07:30.070 ,4,0,0.,12.0,0.,12.0,0.,12.0,0.,12.0
1980-11-14 08:07:42.070 ,4,0,0.,12.0,0.,12.0,0.,12.0,0.,12.0
1980-11-14 08:07:54.070 ,5,0,0.,12.0,0.,12.0,0.,12.0,0.,12.0
1980-11-14 08:08:06.070 ,5,0,0.,12.0,0.,12.0,0.,12.0,0.,12.0
1980-11-14 08:08:18.070 ,5,0,0.,12.0,0.,12.0,0.,12.0,0.,12.0
1980-11-14 08:08:30.070 ,5,0,0.,12.0,0.,12.0,0.,12.0,0.,12.0
1980-11-14 08:08:42.070 ,6,0,0.,12.0,0.,12.0,0.,12.0,0.,12.0
1980-11-14 08:08:54.070 ,6,0,0.,12.0,0.,12.0,0.,12.0,0.,12.0
1980-11-14 08:09:06.070 ,6,0,,0,,0,,0,,0
1980-11-14 08:09:18.070 ,6,0,0.,12.0,0.,12.0,0.,12.0,0.,12.0
1980-11-14 08:09:30.070 ,7,0,0.,12.0,0.,12.0,0.,12.0,0.,12.0
1980-11-14 08:09:42.070 ,7,0,0.,12.0,0.,12.0,0.,12.0,0.,12.0
1980-11-14 08:09:54.070 ,7,0,0.,12.0,0.,12.0,0.,12.0,0.,12.0
1980-11-14 08:10:06.070 ,7,0,0.,12.0,0.,12.0,0.,12.0,0.,12.0
1980-11-14 08:10:18.070 ,7,0,0.,12.0,0.,12.0,0.,12.0,0.,12.0
1980-11-14 08:10:30.070 ,7,0,0.,12.0,0.,12.0,0.,12.0,0.,12.0
1980-11-14 08:10:42.070 ,7,0,0.,12.0,0.,12.0,0.,12.0,0.,12.0
1980-11-14 08:10:54.070 ,7,0,0.,12.0,0.,12.0,0.,12.0,0.,12.0
1980-11-14 08:11:06.070 ,6,0,0.,12.0,0.,12.0,0.,12.0,0.,12.0
1980-11-14 08:11:18.070 ,6,0,0.,12.0,0.,12.0,0.,12.0,0.,12.0
1980-11-14 08:11:30.070 ,6,0,0.,12.0,0.,12.0,0.,12.0,0.,12.0
1980-11-14 08:11:42.070 ,6,0,0.,12.0,0.,12.0,0.,12.0,0.,12.0
1980-11-14 08:11:54.070 ,5,0,0.,12.0,0.,12.0,0.,12.0,0.,12.0
1980-11-14 08:12:06.070 ,5,0,0.,12.0,0.,12.0,0.,12.0,0.,12.0
1980-11-14 08:12:18.070 ,5,0,0.,12.0,0.,12.0,0.,12.0,0.,12.0
1980-11-14 08:12:30.070 ,5,0,0.,12.0,0.,12.0,0.,12.0,0.,12.0
1980-11-14 08:12:42.070 ,4,0,0.,12.0,0.,12.0,0.,12.0,0.,12.0
1980-11-14 08:12:54.070 ,4,0,0.,12.0,0.,12.0,0.,12.0,0.,12.0
1980-11-14 08:13:06.070 ,4,0,0.,12.0,0.,12.0,0.,12.0,0.,12.0
1980-11-14 08:13:18.070 ,4,0,0.,12.0,0.,12.0,0.,12.0,0.,12.0
1980-11-14 08:13:30.070 ,3,0,0.,12.0,0.,12.0,0.,12.0,0.,12.0
1980-11-14 08:13:42.070 ,3,0,0.,12.0,0.,12.0,0.,12.0,0.,12.0
1980-11-14 08:13:54.070 ,3,0,0.,12.0,0.,12.0,0.,12.0,0.,12.0
1980-11-14 08:14:06.070 ,3,0,0.,12.0,0.,12.0,0.,12.0,0.,12.0
1980-11-14 08:14:18.070 ,2,0,0.,12.0,0.,12.0,0.,12.0,0.,12.0
1980-11-14 08:14:30.070 ,2,0,0.,12.0,0.,12.0,0.,12.0,0.,12.0
1980-11-14 08:14:42.070 ,2,0,0.,12.0,0.,12.0,0.,12.0,0.,12.0
1980-11-14 08:14:54.070 ,2,0,0.,12.0,0.,12.0,0.,12.0,0.,12.0
1980-11-14 08:15:06.070 ,1,0,0.,12.0,0.,12.0,0.,12.0,0.,12.0
1980-11-14 08:15:18.070 ,1,0,0.,12.0,0.,12.0,0.,12.0,0.,12.0
1980-11-14 08:15:30.070 ,1,0,0.,12.0,0.,12.0,0.,12.0,0.,12.0
1980-11-14 08:15:42.070 ,1,0,0.,12.0,0.,12.0,0.,12.0,0.,12.0
1980-11-14 08:15:54.070 ,0,0,0.,12.0,0.,12.0,0.,12.0,0.,12.0
1980-11-14 08:16:06.070 ,0,0,0.,12.0,0.,12.0,0.,12.0,0.,12.0
1980-11-14 08:16:18.070 ,0,0,0.,12.0,0.,12.0,0.,12.0,0.,12.0
1980-11-14 08:16:30.070 ,0,0,0.,12.0,0.,12.0,0.,12.0,0.,12.0